RYR6QQ EPPO-EGPH

Flight info

Callsign RYR6QQ
Flight time 2h 7m
Altitude 38000
Route EPPO/28 XERB2B XERBI DCT BINKA DCT NEDIK DCT PETIL DCT SURAT DCT CUTEL DCT TARTN
Aircraft B738/M-SDE2E3FGHIRWXY/LB1

Departure

Time 2026-05-08 21:38
Airport Poznań-Ławica Airport (EPPO)

Arrival

Time 2026-05-08 23:46
Airport Edinburgh Airport (EGPH)
Time Latitude Longitude Altitude Speed Heading
2026-05-08 21:28 52.41651 16.82946 289 ft 8 kts 102°
2026-05-08 21:28 52.41641 16.83030 287 ft 7 kts 102°
2026-05-08 21:28 52.41630 16.83110 287 ft 7 kts 102°
2026-05-08 21:29 52.41620 16.83188 287 ft 7 kts 102°
2026-05-08 21:29 52.41609 16.83264 292 ft 7 kts 104°
2026-05-08 21:29 52.41597 16.83339 287 ft 7 kts 104°
2026-05-08 21:29 52.41586 16.83412 287 ft 7 kts 104°
2026-05-08 21:30 52.41576 16.83484 287 ft 6 kts 97°
2026-05-08 21:30 52.41572 16.83539 287 ft 0 kts 97°
2026-05-08 21:32 52.41723 16.82742 292 ft 0 kts 184°
2026-05-08 21:34 52.41722 16.82742 292 ft 1 kts 184°
2026-05-08 21:34 52.41687 16.82747 287 ft 9 kts 157°
2026-05-08 21:35 52.41659 16.82881 287 ft 17 kts 100°
2026-05-08 21:35 52.41631 16.83097 287 ft 21 kts 103°
2026-05-08 21:35 52.41599 16.83326 287 ft 20 kts 103°
2026-05-08 21:35 52.41571 16.83548 287 ft 20 kts 97°
2026-05-08 21:36 52.41564 16.83767 287 ft 19 kts 92°
2026-05-08 21:36 52.41586 16.83910 287 ft 8 kts 46°
2026-05-08 21:36 52.41624 16.83970 287 ft 7 kts 29°
2026-05-08 21:36 52.41670 16.84002 287 ft 7 kts 22°
2026-05-08 21:37 52.41720 16.84031 287 ft 9 kts 20°
2026-05-08 21:37 52.41782 16.84069 288 ft 6 kts 20°
2026-05-08 21:37 52.41820 16.84079 288 ft 5 kts 330°
2026-05-08 21:37 52.41837 16.84010 288 ft 10 kts 289°
2026-05-08 21:38 52.41912 16.83619 289 ft 72 kts 287°
2026-05-08 21:38 52.42133 16.82479 287 ft 135 kts 287°
2026-05-08 21:38 52.42453 16.80811 579 ft 160 kts 288°
2026-05-08 21:38 52.42799 16.79029 1235 ft 167 kts 289°
2026-05-08 21:39 52.43149 16.77169 1916 ft 176 kts 288°
2026-05-08 21:39 52.43511 16.75172 2432 ft 198 kts 288°
2026-05-08 21:39 52.43917 16.72918 2848 ft 212 kts 288°
2026-05-08 21:39 52.44349 16.70565 3387 ft 220 kts 291°
2026-05-08 21:40 52.45254 16.68445 3627 ft 239 kts 317°
2026-05-08 21:40 52.46479 16.66428 4015 ft 257 kts 315°
2026-05-08 21:40 52.47729 16.64279 4825 ft 262 kts 314°
2026-05-08 21:41 52.50255 16.59905 6576 ft 266 kts 314°
2026-05-08 21:41 52.51536 16.57690 7383 ft 269 kts 314°
2026-05-08 21:41 52.52828 16.55458 8202 ft 271 kts 314°
2026-05-08 21:41 52.54131 16.53206 9024 ft 273 kts 314°
2026-05-08 21:42 52.55446 16.50933 9849 ft 276 kts 313°
2026-05-08 21:42 52.56778 16.48631 10545 ft 282 kts 313°
2026-05-08 21:42 52.58186 16.46195 10745 ft 306 kts 313°
2026-05-08 21:42 52.59704 16.43565 11026 ft 326 kts 313°
2026-05-08 21:43 52.61285 16.40830 11620 ft 333 kts 313°
2026-05-08 21:43 52.62883 16.38059 12410 ft 334 kts 313°
2026-05-08 21:43 52.64490 16.35269 13214 ft 337 kts 313°
2026-05-08 21:43 52.66111 16.32452 13992 ft 341 kts 313°
2026-05-08 21:44 52.67750 16.29600 14699 ft 344 kts 313°
2026-05-08 21:44 52.69404 16.26719 15440 ft 348 kts 312°
2026-05-08 21:44 52.71073 16.23808 16185 ft 351 kts 312°
2026-05-08 21:44 52.72757 16.20868 16912 ft 354 kts 312°
2026-05-08 21:45 52.74459 16.17893 17631 ft 358 kts 312°
2026-05-08 21:45 52.76177 16.14886 18343 ft 362 kts 312°
2026-05-08 21:45 52.77914 16.11843 18972 ft 366 kts 312°
2026-05-08 21:45 52.79667 16.08768 19611 ft 369 kts 312°
2026-05-08 21:46 52.81405 16.05715 20240 ft 371 kts 312°
2026-05-08 21:46 52.83181 16.02592 20861 ft 374 kts 311°
2026-05-08 21:46 52.84916 15.99537 21450 ft 377 kts 311°
2026-05-08 21:46 52.86718 15.96358 22052 ft 380 kts 311°
2026-05-08 21:47 52.88535 15.93150 22640 ft 383 kts 311°
2026-05-08 21:47 52.90365 15.89915 23237 ft 387 kts 311°
2026-05-08 21:47 52.92209 15.86650 23786 ft 390 kts 311°
2026-05-08 21:47 52.94067 15.83357 24260 ft 393 kts 311°
2026-05-08 21:48 52.95942 15.80029 24694 ft 396 kts 311°
2026-05-08 21:48 52.97828 15.76676 25175 ft 398 kts 311°
2026-05-08 21:48 52.99722 15.73307 25652 ft 400 kts 311°
2026-05-08 21:48 53.01619 15.69927 26109 ft 403 kts 311°
2026-05-08 21:49 53.03532 15.66508 26539 ft 405 kts 311°
2026-05-08 21:49 53.05431 15.63026 26965 ft 408 kts 310°
2026-05-08 21:49 53.07317 15.59499 27391 ft 410 kts 310°
2026-05-08 21:49 53.09209 15.55933 27809 ft 412 kts 310°
2026-05-08 21:50 53.11110 15.52343 28215 ft 415 kts 309°
2026-05-08 21:50 53.13023 15.48732 28616 ft 417 kts 309°
2026-05-08 21:50 53.14947 15.45101 29011 ft 419 kts 310°
2026-05-08 21:50 53.16884 15.41445 29360 ft 422 kts 310°
2026-05-08 21:51 53.18832 15.37767 29727 ft 425 kts 310°
2026-05-08 21:51 53.20793 15.34061 30091 ft 427 kts 310°
2026-05-08 21:51 53.22761 15.30338 30409 ft 429 kts 309°
2026-05-08 21:51 53.24738 15.26592 30694 ft 431 kts 309°
2026-05-08 21:52 53.26721 15.22830 31051 ft 431 kts 309°
2026-05-08 21:52 53.28691 15.19086 31539 ft 428 kts 309°
2026-05-08 21:52 53.30649 15.15362 31998 ft 426 kts 309°
2026-05-08 21:52 53.32602 15.11638 32321 ft 426 kts 309°
2026-05-08 21:53 53.34560 15.07899 32630 ft 427 kts 309°
2026-05-08 21:53 53.36514 15.04161 33001 ft 427 kts 309°
2026-05-08 21:53 53.38465 15.00424 33402 ft 425 kts 309°
2026-05-08 21:53 53.40348 14.96812 33746 ft 425 kts 309°
2026-05-08 21:54 53.42292 14.93078 34083 ft 425 kts 309°
2026-05-08 21:54 53.44236 14.89339 34376 ft 425 kts 309°
2026-05-08 21:54 53.46177 14.85599 34637 ft 425 kts 309°
2026-05-08 21:54 53.48119 14.81850 34869 ft 426 kts 309°
2026-05-08 21:55 53.50062 14.78094 35115 ft 426 kts 309°
2026-05-08 21:55 53.52005 14.74332 35378 ft 426 kts 309°
2026-05-08 21:55 53.53950 14.70562 35623 ft 427 kts 309°
2026-05-08 21:56 53.57840 14.63004 36098 ft 428 kts 309°
2026-05-08 21:56 53.59785 14.59215 36327 ft 428 kts 309°
2026-05-08 21:56 53.61733 14.55416 36571 ft 429 kts 309°
2026-05-08 21:56 53.63680 14.51612 36800 ft 429 kts 309°
2026-05-08 21:57 53.65630 14.47797 37021 ft 429 kts 309°
2026-05-08 21:57 53.67577 14.43980 37253 ft 430 kts 309°
2026-05-08 21:57 53.69526 14.40155 37483 ft 430 kts 309°
2026-05-08 21:57 53.71475 14.36325 37690 ft 430 kts 309°
2026-05-08 21:58 53.73424 14.32490 37897 ft 430 kts 309°
2026-05-08 21:58 53.75364 14.28644 38117 ft 430 kts 307°
2026-05-08 21:58 53.77097 14.24532 38232 ft 430 kts 299°
2026-05-08 21:59 53.80096 14.15749 38236 ft 431 kts 298°
2026-05-08 21:59 53.83014 14.06971 38227 ft 426 kts 298°
2026-05-08 22:00 53.85883 13.98430 38238 ft 423 kts 298°
2026-05-08 22:00 53.88798 13.89807 38244 ft 421 kts 298°
2026-05-08 22:01 53.91705 13.81210 38250 ft 420 kts 298°
2026-05-08 22:01 53.94607 13.72597 38247 ft 421 kts 298°
2026-05-08 22:02 53.97516 13.63933 38252 ft 423 kts 298°
2026-05-08 22:02 54.00429 13.55224 38257 ft 426 kts 298°
2026-05-08 22:03 54.03360 13.46431 38256 ft 429 kts 298°
2026-05-08 22:03 54.06304 13.37565 38261 ft 431 kts 298°
2026-05-08 22:04 54.09235 13.28710 38260 ft 433 kts 298°
2026-05-08 22:04 54.12188 13.19752 38255 ft 434 kts 298°
2026-05-08 22:05 54.15139 13.10769 38250 ft 434 kts 298°
2026-05-08 22:05 54.18081 13.01781 38250 ft 433 kts 298°
2026-05-08 22:06 54.20961 12.92949 38255 ft 432 kts 298°
2026-05-08 22:06 54.23871 12.83992 38257 ft 430 kts 297°
2026-05-08 22:07 54.26276 12.76564 38256 ft 429 kts 298°
2026-05-08 22:07 54.29172 12.67591 38261 ft 427 kts 297°
2026-05-08 22:08 54.32033 12.58690 38258 ft 426 kts 297°
2026-05-08 22:08 54.34859 12.49867 38261 ft 425 kts 297°
2026-05-08 22:09 54.37694 12.40986 38272 ft 425 kts 297°
2026-05-08 22:09 54.40523 12.32089 38267 ft 425 kts 297°
2026-05-08 22:10 54.43345 12.23179 38266 ft 425 kts 297°
2026-05-08 22:10 54.46167 12.14241 38263 ft 426 kts 297°
2026-05-08 22:11 54.48958 12.05256 38259 ft 426 kts 294°
2026-05-08 22:11 54.51274 11.96043 38271 ft 426 kts 291°
2026-05-08 22:12 54.53491 11.86561 38273 ft 427 kts 291°
2026-05-08 22:12 54.55724 11.77063 38260 ft 428 kts 291°
2026-05-08 22:13 54.57979 11.67565 38271 ft 429 kts 292°
2026-05-08 22:13 54.60241 11.58058 38268 ft 429 kts 292°
2026-05-08 22:14 54.62501 11.48530 38278 ft 429 kts 291°
2026-05-08 22:14 54.64754 11.38992 38264 ft 429 kts 291°
2026-05-08 22:15 54.66981 11.29518 38277 ft 428 kts 292°
2026-05-08 22:15 54.69214 11.19973 38279 ft 428 kts 291°
2026-05-08 22:16 54.71437 11.10431 38268 ft 428 kts 291°
2026-05-08 22:16 54.73651 11.00886 38270 ft 427 kts 291°
2026-05-08 22:17 54.75818 10.91500 38268 ft 427 kts 291°
2026-05-08 22:17 54.78011 10.81957 38274 ft 426 kts 291°
2026-05-08 22:18 54.80197 10.72404 38274 ft 426 kts 291°
2026-05-08 22:18 54.82375 10.62842 38276 ft 426 kts 291°
2026-05-08 22:19 54.84544 10.53276 38277 ft 426 kts 291°
2026-05-08 22:19 54.86705 10.43706 38274 ft 426 kts 291°
2026-05-08 22:20 54.88859 10.34120 38272 ft 426 kts 291°
2026-05-08 22:20 54.91005 10.24522 38271 ft 426 kts 291°
2026-05-08 22:21 54.93147 10.14905 38269 ft 426 kts 291°
2026-05-08 22:21 54.95279 10.05282 38267 ft 427 kts 291°
2026-05-08 22:22 54.97371 9.95800 38267 ft 427 kts 291°
2026-05-08 22:22 54.99492 9.86143 38264 ft 427 kts 291°
2026-05-08 22:23 55.01603 9.76483 38267 ft 427 kts 291°
2026-05-08 22:23 55.03707 9.66811 37081 ft 427 kts 290°
2026-05-08 22:23 55.04749 9.62006 38377 ft 420 kts 290°
2026-05-08 22:24 55.05781 9.57234 38299 ft 421 kts 290°
2026-05-08 22:24 55.07849 9.47637 38287 ft 425 kts 290°
2026-05-08 22:25 55.09919 9.37989 38268 ft 429 kts 290°
2026-05-08 22:25 55.12008 9.28207 38271 ft 431 kts 290°
2026-05-08 22:26 55.14096 9.18379 38265 ft 432 kts 290°
2026-05-08 22:26 55.16176 9.08541 38264 ft 431 kts 290°
2026-05-08 22:27 55.18207 8.98886 38260 ft 429 kts 290°
2026-05-08 22:27 55.20257 8.89099 38279 ft 427 kts 290°
2026-05-08 22:28 55.22288 8.79352 38257 ft 425 kts 290°
2026-05-08 22:28 55.24303 8.69639 38259 ft 423 kts 290°
2026-05-08 22:29 55.26297 8.59973 38261 ft 421 kts 290°
2026-05-08 22:29 55.28277 8.50334 38266 ft 419 kts 290°
2026-05-08 22:30 55.30243 8.40718 38266 ft 418 kts 290°
2026-05-08 22:30 55.32198 8.31108 38267 ft 418 kts 290°
2026-05-08 22:31 55.34145 8.21489 38267 ft 418 kts 290°
2026-05-08 22:31 55.36086 8.11856 38268 ft 418 kts 290°
2026-05-08 22:32 55.38022 8.02198 38267 ft 419 kts 289°
2026-05-08 22:32 55.39924 7.92663 38265 ft 420 kts 289°
2026-05-08 22:33 55.41838 7.83024 38266 ft 420 kts 289°
2026-05-08 22:33 55.43758 7.73299 38282 ft 421 kts 289°
2026-05-08 22:34 55.45672 7.63563 38263 ft 421 kts 289°
2026-05-08 22:34 55.47577 7.53827 38261 ft 420 kts 289°
2026-05-08 22:35 55.49471 7.44093 38263 ft 419 kts 289°
2026-05-08 22:35 55.51353 7.34369 38257 ft 418 kts 289°
2026-05-08 22:36 55.53224 7.24658 38259 ft 418 kts 288°
2026-05-08 22:36 55.55083 7.14958 38260 ft 417 kts 288°
2026-05-08 22:37 55.56930 7.05274 38258 ft 416 kts 288°
2026-05-08 22:37 55.58738 6.95741 38272 ft 415 kts 288°
2026-05-08 22:38 55.60563 6.86076 38260 ft 414 kts 288°
2026-05-08 22:38 55.62380 6.76400 38262 ft 414 kts 288°
2026-05-08 22:39 55.64187 6.66730 38267 ft 414 kts 288°
2026-05-08 22:39 55.65987 6.57049 38256 ft 414 kts 288°
2026-05-08 22:40 55.67765 6.47433 38256 ft 413 kts 288°
2026-05-08 22:40 55.69547 6.37746 38255 ft 413 kts 287°
2026-05-08 22:41 55.71321 6.28057 38256 ft 413 kts 287°
2026-05-08 22:41 55.73087 6.18355 38255 ft 413 kts 287°
2026-05-08 22:42 55.74846 6.08647 38257 ft 413 kts 287°
2026-05-08 22:42 55.76572 5.99067 38256 ft 413 kts 287°
2026-05-08 22:43 55.78314 5.89350 38252 ft 413 kts 287°
2026-05-08 22:43 55.80046 5.79637 38253 ft 412 kts 287°
2026-05-08 22:44 55.81770 5.69914 38252 ft 412 kts 287°
2026-05-08 22:44 55.83484 5.60197 38256 ft 411 kts 286°
2026-05-08 22:45 55.85188 5.50488 38250 ft 411 kts 286°
2026-05-08 22:45 55.86882 5.40779 38252 ft 410 kts 286°
2026-05-08 22:46 55.88564 5.31091 38249 ft 409 kts 286°
2026-05-08 22:46 55.90236 5.21407 38249 ft 408 kts 286°
2026-05-08 22:47 55.91899 5.11734 38252 ft 408 kts 285°
2026-05-08 22:47 55.93492 5.02036 38243 ft 407 kts 281°
2026-05-08 22:48 55.93892 4.92179 38256 ft 405 kts 269°
2026-05-08 22:48 55.93741 4.82129 38243 ft 406 kts 269°
2026-05-08 22:49 55.93594 4.72066 38245 ft 406 kts 269°
2026-05-08 22:49 55.93391 4.56960 38245 ft 407 kts 269°
2026-05-08 22:50 55.93250 4.46869 38247 ft 407 kts 268°
2026-05-08 22:50 55.93104 4.36769 38238 ft 408 kts 268°
2026-05-08 22:51 55.92950 4.26729 38240 ft 408 kts 268°
2026-05-08 22:51 55.92785 4.16552 38239 ft 408 kts 268°
2026-05-08 22:52 55.92614 4.06510 38234 ft 408 kts 268°
2026-05-08 22:52 55.92435 3.96484 38233 ft 408 kts 268°
2026-05-08 22:53 55.92246 3.86388 38234 ft 407 kts 268°
2026-05-08 22:53 55.92051 3.76371 38220 ft 407 kts 268°
2026-05-08 22:54 55.91847 3.66296 38219 ft 406 kts 268°
2026-05-08 22:54 55.91636 3.56244 38212 ft 406 kts 267°
2026-05-08 22:55 55.91453 3.47830 38213 ft 405 kts 267°
2026-05-08 22:55 55.91233 3.37867 38223 ft 405 kts 267°
2026-05-08 22:56 55.91007 3.27853 38215 ft 404 kts 267°
2026-05-08 22:56 55.90774 3.17853 38216 ft 404 kts 267°
2026-05-08 22:57 55.90532 3.07865 38224 ft 403 kts 267°
2026-05-08 22:57 55.90287 2.98039 38222 ft 403 kts 266°
2026-05-08 22:58 55.90030 2.88070 38220 ft 402 kts 266°
2026-05-08 22:58 55.89764 2.78111 38229 ft 402 kts 266°
2026-05-08 22:59 55.89492 2.68157 38214 ft 402 kts 266°
2026-05-08 22:59 55.89211 2.58208 38215 ft 402 kts 266°
2026-05-08 23:00 55.88924 2.48262 38219 ft 402 kts 266°
2026-05-08 23:00 55.88628 2.38324 38213 ft 402 kts 266°
2026-05-08 23:01 55.88450 2.28380 38211 ft 402 kts 268°
2026-05-08 23:01 55.88386 2.18433 38212 ft 402 kts 268°
2026-05-08 23:02 55.88311 2.08480 38207 ft 402 kts 268°
2026-05-08 23:02 55.88215 1.98686 38212 ft 401 kts 268°
2026-05-08 23:03 55.88101 1.88754 38205 ft 401 kts 267°
2026-05-08 23:03 55.87976 1.78829 38202 ft 401 kts 267°
2026-05-08 23:04 55.87844 1.68914 38216 ft 400 kts 267°
2026-05-08 23:04 55.87703 1.58998 38202 ft 400 kts 267°
2026-05-08 23:05 55.87555 1.49093 38198 ft 400 kts 267°
2026-05-08 23:05 55.87398 1.39194 38198 ft 400 kts 267°
2026-05-08 23:06 55.87234 1.29306 38198 ft 399 kts 266°
2026-05-08 23:06 55.87062 1.19419 38198 ft 399 kts 266°
2026-05-08 23:07 55.86883 1.09541 38198 ft 399 kts 266°
2026-05-08 23:07 55.86697 0.99767 38193 ft 399 kts 266°
2026-05-08 23:08 55.86503 0.89927 38185 ft 399 kts 266°
2026-05-08 23:08 55.86299 0.80046 38186 ft 400 kts 266°
2026-05-08 23:09 55.86088 0.70159 38188 ft 400 kts 266°
2026-05-08 23:09 55.85868 0.60266 38185 ft 400 kts 266°
2026-05-08 23:10 55.85641 0.50376 38193 ft 400 kts 265°
2026-05-08 23:10 55.85405 0.40481 38184 ft 400 kts 265°
2026-05-08 23:11 55.85162 0.30611 38184 ft 399 kts 265°
2026-05-08 23:11 55.84912 0.20761 38181 ft 398 kts 265°
2026-05-08 23:12 55.84655 0.10935 38184 ft 397 kts 265°
2026-05-08 23:12 55.84390 0.01134 38185 ft 396 kts 265°
2026-05-08 23:13 55.84121 -0.08542 37784 ft 401 kts 265°
2026-05-08 23:13 55.83982 -0.13458 37468 ft 395 kts 265°
2026-05-08 23:13 55.83843 -0.18300 37075 ft 389 kts 265°
2026-05-08 23:14 55.83704 -0.23079 36676 ft 384 kts 265°
2026-05-08 23:14 55.83565 -0.27789 36334 ft 379 kts 265°
2026-05-08 23:14 55.83426 -0.32439 35944 ft 374 kts 265°
2026-05-08 23:14 55.83287 -0.37026 35565 ft 370 kts 265°
2026-05-08 23:15 55.83149 -0.41505 35209 ft 365 kts 265°
2026-05-08 23:15 55.83008 -0.46047 34821 ft 361 kts 265°
2026-05-08 23:15 55.82869 -0.50477 34474 ft 357 kts 265°
2026-05-08 23:15 55.82731 -0.54799 34101 ft 353 kts 265°
2026-05-08 23:16 55.82592 -0.59123 33720 ft 348 kts 265°
2026-05-08 23:16 55.82454 -0.63392 33352 ft 343 kts 265°
2026-05-08 23:16 55.82316 -0.67600 32992 ft 339 kts 265°
2026-05-08 23:16 55.82178 -0.71761 32634 ft 335 kts 265°
2026-05-08 23:17 55.82040 -0.75872 32283 ft 331 kts 265°
2026-05-08 23:17 55.81902 -0.79937 31947 ft 328 kts 264°
2026-05-08 23:17 55.81765 -0.83961 31600 ft 325 kts 264°
2026-05-08 23:17 55.81627 -0.87953 31255 ft 322 kts 264°
2026-05-08 23:18 55.81489 -0.91904 30919 ft 319 kts 264°
2026-05-08 23:18 55.81351 -0.95830 30590 ft 317 kts 264°
2026-05-08 23:18 55.81213 -0.99721 30260 ft 314 kts 264°
2026-05-08 23:18 55.81079 -1.03478 29898 ft 312 kts 263°
2026-05-08 23:19 55.80941 -1.07293 29578 ft 307 kts 263°
2026-05-08 23:19 55.80804 -1.11066 29231 ft 304 kts 263°
2026-05-08 23:19 55.80667 -1.14800 28914 ft 302 kts 263°
2026-05-08 23:19 55.80529 -1.18514 28585 ft 300 kts 263°
2026-05-08 23:20 55.80389 -1.22244 28248 ft 307 kts 263°
2026-05-08 23:20 55.80240 -1.26111 27903 ft 319 kts 263°
2026-05-08 23:20 55.80089 -1.30063 27528 ft 320 kts 263°
2026-05-08 23:20 55.79940 -1.33977 27187 ft 316 kts 263°
2026-05-08 23:21 55.79792 -1.37859 26837 ft 312 kts 263°
2026-05-08 23:21 55.79644 -1.41690 26486 ft 310 kts 262°
2026-05-08 23:21 55.79496 -1.45489 26143 ft 307 kts 262°
2026-05-08 23:21 55.79347 -1.49259 25810 ft 304 kts 262°
2026-05-08 23:22 55.79198 -1.52999 25475 ft 302 kts 262°
2026-05-08 23:22 55.79050 -1.56706 25146 ft 300 kts 262°
2026-05-08 23:22 55.78901 -1.60390 24820 ft 298 kts 262°
2026-05-08 23:22 55.78752 -1.64047 24495 ft 296 kts 262°
2026-05-08 23:23 55.78602 -1.67686 24172 ft 294 kts 262°
2026-05-08 23:23 55.78453 -1.71301 23872 ft 293 kts 261°
2026-05-08 23:23 55.78302 -1.74905 23501 ft 292 kts 261°
2026-05-08 23:23 55.78152 -1.78492 23143 ft 290 kts 261°
2026-05-08 23:24 55.78002 -1.82045 22829 ft 287 kts 261°
2026-05-08 23:24 55.77853 -1.85558 22498 ft 284 kts 262°
2026-05-08 23:24 55.77704 -1.89039 22192 ft 281 kts 262°
2026-05-08 23:24 55.77554 -1.92503 21891 ft 281 kts 262°
2026-05-08 23:25 55.77403 -1.95964 21570 ft 282 kts 262°
2026-05-08 23:25 55.77249 -1.99462 21265 ft 288 kts 262°
2026-05-08 23:25 55.77094 -2.02948 20960 ft 296 kts 262°
2026-05-08 23:25 55.76931 -2.06601 20621 ft 296 kts 262°
2026-05-08 23:26 55.76770 -2.10237 20287 ft 294 kts 262°
2026-05-08 23:26 55.76610 -2.13840 19959 ft 292 kts 262°
2026-05-08 23:26 55.76449 -2.17420 19616 ft 290 kts 262°
2026-05-08 23:26 55.76288 -2.20974 19310 ft 288 kts 262°
2026-05-08 23:27 55.76127 -2.24505 19000 ft 286 kts 262°
2026-05-08 23:27 55.75966 -2.28014 18706 ft 285 kts 262°
2026-05-08 23:27 55.75804 -2.31512 18374 ft 284 kts 262°
2026-05-08 23:27 55.75642 -2.34992 18019 ft 282 kts 262°
2026-05-08 23:28 55.75481 -2.38410 17683 ft 281 kts 262°
2026-05-08 23:28 55.75320 -2.41845 17382 ft 278 kts 262°
2026-05-08 23:28 55.75158 -2.45249 17059 ft 276 kts 262°
2026-05-08 23:28 55.74997 -2.48636 16751 ft 274 kts 262°
2026-05-08 23:29 55.74835 -2.51998 16443 ft 273 kts 262°
2026-05-08 23:29 55.74674 -2.55344 16136 ft 272 kts 262°
2026-05-08 23:29 55.74512 -2.58677 15831 ft 270 kts 262°
2026-05-08 23:29 55.74350 -2.61995 15527 ft 269 kts 262°
2026-05-08 23:30 55.74188 -2.65298 15223 ft 268 kts 262°
2026-05-08 23:30 55.74025 -2.68595 14925 ft 268 kts 262°
2026-05-08 23:30 55.73861 -2.71886 14624 ft 267 kts 262°
2026-05-08 23:30 55.73698 -2.75164 14326 ft 267 kts 262°
2026-05-08 23:31 55.73533 -2.78447 14018 ft 267 kts 262°
2026-05-08 23:31 55.73368 -2.81726 13703 ft 266 kts 262°
2026-05-08 23:31 55.73202 -2.84991 13389 ft 265 kts 262°
2026-05-08 23:31 55.73037 -2.88242 13069 ft 264 kts 262°
2026-05-08 23:32 55.72871 -2.91477 12759 ft 263 kts 262°
2026-05-08 23:32 55.72705 -2.94704 12455 ft 262 kts 262°
2026-05-08 23:32 55.72540 -2.97907 12160 ft 260 kts 262°
2026-05-08 23:32 55.72379 -3.01011 11877 ft 259 kts 262°
2026-05-08 23:33 55.72214 -3.04183 11583 ft 258 kts 262°
2026-05-08 23:33 55.72047 -3.07339 11280 ft 256 kts 262°
2026-05-08 23:33 55.71881 -3.10480 11001 ft 256 kts 262°
2026-05-08 23:33 55.71715 -3.13615 10702 ft 255 kts 262°
2026-05-08 23:34 55.71549 -3.16746 10354 ft 257 kts 262°
2026-05-08 23:34 55.71383 -3.19885 10113 ft 254 kts 262°
2026-05-08 23:34 55.71217 -3.23025 9743 ft 256 kts 262°
2026-05-08 23:34 55.71051 -3.26150 9457 ft 254 kts 262°
2026-05-08 23:35 55.70885 -3.29257 9179 ft 252 kts 262°
2026-05-08 23:35 55.70719 -3.32343 8901 ft 251 kts 263°
2026-05-08 23:35 55.70553 -3.35421 8618 ft 250 kts 263°
2026-05-08 23:35 55.70388 -3.38476 8353 ft 248 kts 263°
2026-05-08 23:36 55.70223 -3.41520 8078 ft 247 kts 263°
2026-05-08 23:36 55.70057 -3.44547 7808 ft 246 kts 263°
2026-05-08 23:36 55.69893 -3.47562 7542 ft 245 kts 263°
2026-05-08 23:36 55.69727 -3.50568 7271 ft 244 kts 263°
2026-05-08 23:37 55.69562 -3.53558 7004 ft 244 kts 263°
2026-05-08 23:37 55.69395 -3.56544 6744 ft 243 kts 263°
2026-05-08 23:37 55.69231 -3.59482 6474 ft 242 kts 264°
2026-05-08 23:37 55.69247 -3.62435 6280 ft 239 kts 284°
2026-05-08 23:38 55.69983 -3.65011 6194 ft 233 kts 306°
2026-05-08 23:38 55.71142 -3.67019 6101 ft 234 kts 319°
2026-05-08 23:38 55.72402 -3.68872 6005 ft 237 kts 319°
2026-05-08 23:38 55.73659 -3.70740 5891 ft 232 kts 319°
2026-05-08 23:39 55.74871 -3.72556 5792 ft 224 kts 319°
2026-05-08 23:39 55.76049 -3.74305 5654 ft 219 kts 319°
2026-05-08 23:39 55.77212 -3.76025 5454 ft 216 kts 319°
2026-05-08 23:39 55.78356 -3.77742 5232 ft 215 kts 322°
2026-05-08 23:40 55.79738 -3.78624 5034 ft 217 kts
2026-05-08 23:40 55.81117 -3.77564 5034 ft 223 kts 44°
2026-05-08 23:40 55.82043 -3.75353 4683 ft 228 kts 58°
2026-05-08 23:40 55.82864 -3.72949 4377 ft 224 kts 57°
2026-05-08 23:41 55.83414 -3.71464 4369 ft 211 kts 57°
2026-05-08 23:41 55.84193 -3.69300 4119 ft 204 kts 58°
2026-05-08 23:41 55.84920 -3.67177 3853 ft 198 kts 59°
2026-05-08 23:41 55.85621 -3.65096 3589 ft 194 kts 59°
2026-05-08 23:42 55.86303 -3.63062 3325 ft 190 kts 59°
2026-05-08 23:42 55.86974 -3.61063 3066 ft 186 kts 59°
2026-05-08 23:42 55.87631 -3.59106 2817 ft 182 kts 58°
2026-05-08 23:42 55.88274 -3.57191 2568 ft 178 kts 58°
2026-05-08 23:43 55.88907 -3.55309 2324 ft 175 kts 58°
2026-05-08 23:43 55.89527 -3.53465 2086 ft 172 kts 57°
2026-05-08 23:43 55.90138 -3.51652 1850 ft 169 kts 57°
2026-05-08 23:43 55.90736 -3.49875 1612 ft 165 kts 57°
2026-05-08 23:44 55.91308 -3.48179 1413 ft 153 kts 57°
2026-05-08 23:44 55.91843 -3.46592 1183 ft 149 kts 57°
2026-05-08 23:44 55.92371 -3.45026 977 ft 147 kts 58°
2026-05-08 23:44 55.92900 -3.43456 779 ft 148 kts 58°
2026-05-08 23:45 55.93435 -3.41872 581 ft 150 kts 58°
2026-05-08 23:45 55.93970 -3.40272 376 ft 151 kts 59°
2026-05-08 23:45 55.94516 -3.38674 159 ft 150 kts 58°
2026-05-08 23:45 55.95029 -3.37165 111 ft 125 kts 59°
2026-05-08 23:46 55.95367 -3.36165 108 ft 63 kts 58°
2026-05-08 23:46 55.95525 -3.35699 112 ft 32 kts 59°
2026-05-08 23:46 55.95565 -3.35542 112 ft 9 kts 102°
2026-05-08 23:46 55.95512 -3.35480 111 ft 9 kts 142°
2026-05-08 23:47 55.95461 -3.35409 115 ft 10 kts 152°
2026-05-08 23:47 55.95408 -3.35472 114 ft 12 kts 242°
2026-05-08 23:47 55.95360 -3.35620 113 ft 16 kts 238°
2026-05-08 23:47 55.95299 -3.35791 113 ft 13 kts 239°
2026-05-08 23:48 55.95244 -3.35813 113 ft 10 kts 137°
2026-05-08 23:48 55.95206 -3.35719 115 ft 9 kts 115°
2026-05-08 23:48 55.95178 -3.35704 114 ft 4 kts 242°
2026-05-08 23:48 55.95167 -3.35784 113 ft 11 kts 258°
2026-05-08 23:49 55.95114 -3.35837 113 ft 12 kts 142°
2026-05-08 23:49 55.95048 -3.35788 113 ft 12 kts 213°
2026-05-08 23:49 55.94972 -3.35858 114 ft 13 kts 187°
2026-05-08 23:49 55.94915 -3.35797 115 ft 10 kts 120°
2026-05-08 23:50 55.94884 -3.35704 113 ft 7 kts 129°
2026-05-08 23:50 55.94842 -3.35717 113 ft 7 kts 213°
2026-05-08 23:50 55.94812 -3.35747 115 ft 2 kts 209°
2026-05-08 23:50 55.94809 -3.35750 112 ft 0 kts 209°
2026-05-08 23:55 55.94815 -3.35745 112 ft 0 kts 208°
2026-05-08 23:59 55.94810 -3.35773 112 ft 0 kts 208°
2026-05-09 00:01 55.94815 -3.35745 112 ft 0 kts 208°
2026-05-09 00:12 55.92072 -3.45913 1100 ft 147 kts 58°
2026-05-09 00:12 55.91943 -3.46294 1141 ft 148 kts 57°
2026-05-09 00:13 55.92471 -3.44730 940 ft 147 kts 58°
2026-05-09 00:13 55.93001 -3.43157 736 ft 149 kts 58°
2026-05-09 00:13 55.93538 -3.41567 542 ft 150 kts 58°
2026-05-09 00:13 55.94072 -3.39969 324 ft 151 kts 58°
2026-05-09 00:14 55.94613 -3.38389 127 ft 150 kts 58°
2026-05-09 00:14 55.95105 -3.36940 113 ft 114 kts 58°
2026-05-09 00:14 55.95404 -3.36056 110 ft 52 kts 58°
2026-05-09 00:14 55.95541 -3.35651 112 ft 23 kts 59°
2026-05-09 00:15 55.92203 -3.45524 1041 ft 147 kts 57°
2026-05-09 00:15 55.92829 -3.43668 804 ft 148 kts 58°
2026-05-09 00:15 55.93364 -3.42083 602 ft 150 kts 58°
2026-05-09 00:15 55.93898 -3.40486 408 ft 150 kts 59°
2026-05-09 00:16 55.94444 -3.38888 180 ft 151 kts 58°
2026-05-09 00:16 55.94967 -3.37351 111 ft 133 kts 60°
2026-05-09 00:16 55.95334 -3.36260 107 ft 71 kts 59°
2026-05-09 00:16 55.95509 -3.35747 112 ft 34 kts 59°
2026-05-09 00:17 55.95567 -3.35556 112 ft 9 kts 87°
2026-05-09 00:17 55.95519 -3.35489 114 ft 9 kts 155°